Weather History for KALB - November, 2013

Change the Weather History Date:

Saturday, November 23, 2013

  Actual Average Record
Temperature  
Mean Temperature 34 °F 37 °F  
Max Temperature 45 °F 45 °F 72 °F (1931)
Min Temperature 23 °F 30 °F 5 °F (1972)
Degree Days  
Heating Degree Days 31 28  
Month to date heating degree days 550 554  
Since 1 July heating degree days 1097 1199  
Cooling Degree Days 0 0  
Month to date cooling degree days 0 0  
Year to date cooling degree days 763 598  
Moisture  
Dew Point 23 °F    
Average Humidity 54    
Maximum Humidity 70    
Minimum Humidity 37    
Precipitation  
Precipitation 0.01 in 0.12 in 1.85 in (1920)
Month to date precipitation 0.60 2.54  
Year to date precipitation 39.21 35.67  
Snow  
Snow 0.40 in 0.20 in 5.00 in (1943)
Month to date snowfall 0.4 1.6  
Since 1 July snowfall 0.4 1.6  
Since 1 September snowfall 0.4 1.6  
Snow Depth 0.00 in    
Sea Level Pressure  
Sea Level Pressure 29.95 in    
Wind  
Wind Speed 18 mph (WNW)    
Max Wind Speed 31 mph    
Max Gust Speed 41 mph    
Visibility 8 miles    
Events Fog , Snow    
T = Trace of Precipitation, MM = Missing Value Source: NWS Daily Summary

Daily Weather History Graph

Daily Weather History Graph

Search for Another Location

Airport or City:

Trip Planner

Search our weather history database for the weather conditions in past years. The results will help you decide how hot, cold, wet, or windy it might be!

Date:

Astronomy

Nov. 23, 2013 Rise Set
Actual Time 6:57 AM EST 4:25 PM EST
Civil Twilight 6:25 AM EST 4:57 PM EST
Nautical Twilight 5:51 AM EST 5:31 PM EST
Astronomical Twilight 5:17 AM EST 6:05 PM EST
Moon 9:55 PM EST (11/23) 11:09 AM EST (11/23)
Length of Visible Light 10h 31m
Length of Day
9h 28m
Waning Gibbous, 70% of the Moon is Illuminated
Nov 23
Waning Gibbous
Nov 25
Last Quarter
Dec 2
New
Dec 9
First Quarter
Dec 17
Full

Hourly Weather History & Observations

Time (EST) Temp. Windchill Dew Point Humidity Pressure Visibility Wind Dir Wind Speed Gust Speed Precip Events Conditions
12:51 AM 43.0 °F 34.8 °F 34.0 °F 71% 29.96 in 10.0 mi WNW 18.4 mph 32.2 mph 0.00 in   Mostly Cloudy
1:02 AM 42.8 °F 34.8 °F 33.8 °F 70% 29.95 in 10.0 mi West 17.3 mph 28.8 mph N/A   Overcast
1:38 AM 41.0 °F 31.4 °F 30.2 °F 65% 29.96 in 10.0 mi West 21.9 mph 34.5 mph N/A   Overcast
1:51 AM 41.0 °F 30.7 °F 30.0 °F 65% 29.97 in 10.0 mi West 25.3 mph 34.5 mph N/A   Mostly Cloudy
2:40 AM 39.2 °F 30.5 °F 28.4 °F 65% 29.96 in 10.0 mi WNW 16.1 mph 40.3 mph N/A   Scattered Clouds
2:51 AM 39.0 °F 29.6 °F 28.9 °F 67% 29.98 in 10.0 mi West 18.4 mph 27.6 mph N/A   Scattered Clouds
3:51 AM 37.0 °F 32.4 °F 27.0 °F 67% 29.99 in 10.0 mi WNW 5.8 mph - N/A   Scattered Clouds
4:51 AM 36.0 °F 26.0 °F 25.0 °F 64% 30.00 in 10.0 mi WNW 17.3 mph 28.8 mph N/A   Scattered Clouds
5:13 AM 35.6 °F 26.2 °F 24.8 °F 65% 30.00 in 10.0 mi WNW 15.0 mph 23.0 mph N/A   Mostly Cloudy
5:51 AM 35.1 °F 25.9 °F 25.0 °F 67% 30.02 in 10.0 mi WNW 13.8 mph 19.6 mph N/A   Mostly Cloudy
6:51 AM 34.0 °F 25.5 °F 23.0 °F 64% 30.04 in 10.0 mi West 11.5 mph 18.4 mph N/A   Mostly Cloudy
7:51 AM 34.0 °F 24.2 °F 19.9 °F 56% 30.05 in 10.0 mi WNW 15.0 mph 23.0 mph N/A   Scattered Clouds
8:51 AM 35.1 °F 24.8 °F 21.0 °F 57% 30.05 in 10.0 mi WNW 17.3 mph 25.3 mph N/A   Scattered Clouds
9:51 AM 36.0 °F 24.7 °F 21.0 °F 55% 30.03 in 10.0 mi WNW 21.9 mph 33.4 mph N/A   Scattered Clouds
10:51 AM 35.1 °F 23.5 °F 21.0 °F 57% 30.01 in 10.0 mi WNW 21.9 mph 35.7 mph N/A   Mostly Cloudy
11:51 AM 35.1 °F 25.5 °F 21.0 °F 57% 29.99 in 10.0 mi WNW 15.0 mph 21.9 mph N/A   Mostly Cloudy
12:51 PM 37.9 °F 27.6 °F 19.0 °F 47% 29.95 in 10.0 mi WSW 20.7 mph 25.3 mph N/A   Mostly Cloudy
1:51 PM 39.9 °F 31.8 °F 16.0 °F 38% 29.91 in 10.0 mi West 15.0 mph 24.2 mph N/A   Mostly Cloudy
2:51 PM 39.0 °F 29.6 °F 15.1 °F 38% 29.88 in 10.0 mi WSW 18.4 mph 25.3 mph N/A   Mostly Cloudy
3:51 PM 35.1 °F 23.5 °F 21.0 °F 57% 29.88 in 10.0 mi WSW 21.9 mph 27.6 mph 0.00 in   Scattered Clouds
4:51 PM 34.0 °F 24.6 °F 21.9 °F 61% 29.88 in 10.0 mi West 13.8 mph - N/A   Scattered Clouds
5:10 PM 32.0 °F 19.2 °F 24.8 °F 75% 29.90 in 2.0 mi West 23.0 mph 38.0 mph 0.00 in Snow Light Snow
5:25 PM 32.0 °F 23.0 °F 26.6 °F 80% 29.90 in 7.0 mi WNW 11.5 mph - 0.00 in Snow Light Snow
5:51 PM 30.9 °F 20.7 °F 21.9 °F 69% 29.91 in 10.0 mi WNW 13.8 mph 24.2 mph 0.00 in   Mostly Cloudy
6:39 PM 32.0 °F 20.5 °F 21.2 °F 64% 29.90 in 1.0 mi West 18.4 mph 29.9 mph 0.00 in Snow Light Snow
6:51 PM 28.9 °F 15.4 °F 25.0 °F 85% 29.92 in 1.0 mi WNW 21.9 mph 31.1 mph 0.00 in Snow Light Snow
6:55 PM 28.4 °F 16.6 °F 24.8 °F 86% 29.91 in 0.2 mi WNW 16.1 mph 31.1 mph 0.00 in Fog , Snow Snow
7:00 PM 28.4 °F 16.6 °F 24.8 °F 86% 29.91 in 2.0 mi West 16.1 mph 26.5 mph 0.01 in Snow Light Snow
7:06 PM 28.4 °F 17.0 °F 24.8 °F 86% 29.91 in 6.0 mi West 15.0 mph 23.0 mph 0.01 in Snow Light Snow
7:43 PM 28.4 °F 16.6 °F 19.4 °F 69% 29.91 in 10.0 mi West 16.1 mph 25.3 mph 0.01 in   Scattered Clouds
7:51 PM 30.0 °F 19.1 °F 19.0 °F 64% 29.92 in 10.0 mi WNW 15.0 mph 24.2 mph 0.01 in   Scattered Clouds
8:51 PM 28.0 °F 14.3 °F 17.1 °F 63% 29.94 in 10.0 mi WNW 21.9 mph 29.9 mph 0.00 in   Scattered Clouds
9:31 PM 26.6 °F 11.7 °F 19.4 °F 74% 29.93 in 0.5 mi West 24.2 mph 31.1 mph 0.00 in Snow Light Snow
9:40 PM 26.6 °F 15.2 °F 21.2 °F 80% 29.94 in 1.0 mi WNW 13.8 mph 31.1 mph 0.00 in Snow Light Snow
9:51 PM 26.1 °F 14.0 °F 19.9 °F 78% 29.95 in 1.0 mi West 15.0 mph 20.7 mph 0.00 in Snow Light Snow
10:07 PM 24.8 °F 12.4 °F 19.4 °F 80% 29.93 in 3.0 mi West 15.0 mph 24.2 mph 0.00 in Snow Light Snow
10:21 PM 26.6 °F 14.3 °F 15.8 °F 64% 29.93 in 10.0 mi West 16.1 mph 29.9 mph 0.00 in   Mostly Cloudy
10:51 PM 25.0 °F 9.5 °F 12.9 °F 60% 29.94 in 10.0 mi WNW 24.2 mph 38.0 mph 0.00 in Snow Light Snow
11:51 PM 23.0 °F 7.6 °F 12.0 °F 63% 29.94 in 10.0 mi West 21.9 mph 32.2 mph 0.00 in   Partly Cloudy